Flag for Cuba Weather past 2 weeks in Santiago de Cuba, Cuba

Now
86 °F

Passing clouds.


Feels Like: 93 °F
Forecast: 71 / 93 °F
Wind: 8 mph from South

Location: Santiago De Cuba - Oriente

Current Time: Oct 2, 2014 at 11:09:54 AM

Latest Report: Oct 2, 2014 at 10:50 AM


Visibility: 6 mi

Pressure: 30.04 "Hg

Humidity: 66%

Dew point: 73 °F

Location of Santiago de CubaLocation

Historic Weather in Santiago de Cuba — Graph

°F

Santiago de Cuba temperature yesterday

Maximum temperature yesterday: 86 °F (at 1:50 PM)
Minimum temperature yesterday: 73 °F (at 3:51 AM)
Average temperature yesterday: 80 °F

Past Weeks' High & Low Weather Summary

 TemperatureHumidityPressure
High91 °F (Sep 25, 10:51 AM)94% (Sep 29, 1:50 AM)30.04 "Hg (Sep 29, 1:50 AM)
Low72 °F (Oct 2, 6:52 AM)49% (Sep 23, 5:51 PM)29.83 "Hg (Sep 26, 3:53 PM)
Average81 °F74%29.94 "Hg
* Reported Sep 17 9:50 AM — Oct 2 9:50 AM, Santiago de Cuba, Weather by CustomWeather, © 2014

Note: Actual official high and low records may vary slightly from our data, if they occured in-between our weather recording intervals... More about our weather records

Advertising

Santiago de Cuba weather history for previous 24 hours

 ConditionsComfort  
Time TempWeatherWind HumidityBarometerVisibility
9:50 AM
Oct 2
86 °FPassing clouds.5 mph66%30.04 "Hg6 mi
8:52 AM82 °FPassing clouds.3 mph70%30.04 "Hg5 mi
7:50 AM75 °FPassing clouds.5 mph83%30.01 "Hg5 mi
6:52 AM72 °FPassing clouds.5 mph88%30.01 "Hg6 mi
5:50 AM73 °FPassing clouds.5 mph89%30.01 "Hg6 mi
4:52 AM73 °FPassing clouds.5 mph89%29.98 "Hg6 mi
3:51 AM73 °FPassing clouds.5 mph89%29.98 "Hg6 mi
2:52 AM73 °FPassing clouds.5 mph89%29.98 "Hg6 mi
1:51 AM75 °FPassing clouds.6 mph89%29.98 "Hg6 mi
12:50 AM73 °FPassing clouds.6 mph89%30.01 "Hg6 mi
11:51 PM
Oct 1
75 °FPassing clouds.5 mph89%30.01 "Hg6 mi
10:51 PM75 °FPassing clouds.3 mph89%30.01 "Hg6 mi
9:52 PM77 °FPassing clouds.3 mph83%30.01 "Hg6 mi
8:54 PM81 °FPassing clouds.1 mph74%29.98 "Hg6 mi
7:52 PM82 °FPassing clouds.2 mph70%29.95 "Hg6 mi
6:52 PM84 °FPassing clouds.5 mph62%29.95 "Hg6 mi
5:50 PM86 °FPassing clouds.6 mph59%29.95 "Hg6 mi
4:50 PM86 °FPassing clouds.7 mph59%29.95 "Hg6 mi
3:50 PM86 °FPassing clouds.7 mph59%29.95 "Hg6 mi
2:50 PM86 °FPassing clouds.7 mph62%29.95 "Hg6 mi
1:50 PM86 °FScattered clouds.7 mph62%29.98 "Hg6 mi
12:51 PM84 °FScattered clouds.6 mph66%29.98 "Hg6 mi
11:50 AM84 °FScattered clouds.6 mph70%30.01 "Hg6 mi
Weather by CustomWeather, © 2014

See weather overviewHow to use our weather pages